Starlink 1624

operational
NORAD ID: 46130 Int'l Des: 2020-057 Owner: SPXS Country: US Constellation: starlink
LEOCIRCULARSTARLINK_TYPE

Über Starlink 1624

Beschreibung wird geladen...

Live-Position

3D-Globus wird geladen...

Nächste Überflüge

Höhenverlauf

Altitude vs Time

uPlot chart will show altitude changes over time

Zweizeiliger Elementsatz

1 46130U 20057P 25352.97499717 .00079050 00000-0 14650-2 0 9997
2 46130 53.0516 263.8116 0012904 92.5341 267.7143 15.48229165295923
Epoch: 18. Dez. 2025 • Age: 8 hours

Aktueller Status

Höhe 418.9 km
Geschwindigkeit 7.67 km/s
Subsatellitenpunkt 49.20°N, 179.75°E
Startdatum 18. Aug. 2020
Alter 5.3 years
Typ internet

Technische Details

Klassifizierung Payload
Masse 260.00 kg
Trockenmasse 248.00 kg
Gesamtmasse 260.00 kg
Länge 0.20 m
Durchmesser 2.80 m
Spannweite 9.00 m
Form Box + pan
Hersteller SPXS
Bus-Typ Starlink
Phasenstatus In Orbit
Besitzer/Staat SPXS/US

Große Konstellationen

Loading constellations...